New Bern, NC

12:13 AM EST on December 10, 2019 (GMT -0500)
Craven County Regional

Weather History for KEWN - August, 2019

Change the Weather History Date:

Sunday, August 25, 2019

  Actual Average Record
Temperature  
Mean Temperature 73 °F 78 °F  
Max Temperature 78 °F 87 °F 96 °F (1968)
Min Temperature 68 °F 70 °F 57 °F (1969)
Degree Days  
Heating Degree Days 0 0  
Month to date heating degree days 0 0  
Since 1 June heating degree days 0 1  
Since 1 July heating degree days 0 0  
Cooling Degree Days 8 13  
Month to date cooling degree days 393 361  
Year to date cooling degree days 1712 1451  
Since 1 June cooling degree days 1293 1208  
Growing Degree Days 23 (Base 50)    
Moisture  
Dew Point 67 °F    
Average Humidity 85    
Maximum Humidity 100    
Minimum Humidity 62    
Precipitation  
Precipitation T in 0.21 in 1.90 in (1990)
Month to date precipitation 5.50 5.46  
Year to date precipitation 28.44 35.61  
Snow  
Snow 0.00 in - - ()
Month to date snowfall 0.0  
Since 1 July snowfall 0.0  
Snow Depth 0.00 in    
Sea Level Pressure  
Sea Level Pressure 30.06 in    
Wind  
Wind Speed 10 mph ()    
Max Wind Speed 20 mph    
Max Gust Speed 26 mph    
Visibility 9.7 miles    
Events Rain    
T = Trace of Precipitation, MM = Missing Value Source: Averaged Metar Reports

Daily Weather History Graph

Daily Weather History Graph

Search for Another Location

Airport or City:

Astronomy

Aug. 25, 2019 Rise Set
Actual Time 6:35 AM EDT 7:44 PM EDT
Civil Twilight 6:09 AM EDT 8:10 PM EDT
Nautical Twilight 5:37 AM EDT 8:41 PM EDT
Astronomical Twilight 5:05 AM EDT 9:14 PM EDT
Moon 1:15 AM EDT (8/25) 3:55 PM EDT (8/25)
Length of Visible Light 14h 01m
Length of Day
13h 09m
Waning Crescent, 29% of the Moon is Illuminated
Aug 25
Waning Crescent
Aug 30
New
Sep 5
First Quarter
Sep 14
Full
Sep 21
Last Quarter

Hourly Weather History & Observations

Time (EDT) Temp. Dew Point Humidity Pressure Visibility Wind Dir Wind Speed Gust Speed Precip Events Conditions
12:54 AM 69.1 °F 66.0 °F 90% 30.09 in 10.0 mi NNE 10.4 mph - N/A   Scattered Clouds
1:54 AM 69.1 °F 66.0 °F 90% 30.08 in 10.0 mi NNE 10.4 mph - N/A   Clear
2:49 AM 69.8 °F 66.2 °F 88% 30.05 in 10.0 mi North 8.1 mph - N/A   Mostly Cloudy
2:54 AM 69.1 °F 66.9 °F 93% 30.05 in 10.0 mi North 8.1 mph - N/A   Mostly Cloudy
3:54 AM 70.0 °F 66.9 °F 90% 30.06 in 10.0 mi North 8.1 mph - N/A   Overcast
4:35 AM 70.0 °F 66.9 °F 90% 30.04 in 10.0 mi NNE 10.4 mph - N/A   Overcast
4:54 AM 70.0 °F 68.0 °F 93% 30.04 in 10.0 mi North 8.1 mph - N/A   Overcast
5:21 AM 70.0 °F 68.0 °F 93% 30.04 in 10.0 mi North 10.4 mph - N/A   Overcast
5:54 AM 70.0 °F 69.1 °F 97% 30.04 in 10.0 mi NNE 6.9 mph - N/A   Overcast
6:06 AM 71.1 °F 69.1 °F 93% 30.04 in 10.0 mi NNE 9.2 mph - N/A   Overcast
6:54 AM 72.0 °F 70.0 °F 93% 30.05 in 10.0 mi NNE 10.4 mph - N/A   Overcast
7:15 AM 72.0 °F 70.0 °F 93% 30.05 in 10.0 mi NNE 10.4 mph - N/A   Overcast
7:29 AM 71.1 °F 70.0 °F 96% 30.05 in 10.0 mi North 11.5 mph - N/A   Overcast
7:54 AM 71.1 °F 70.0 °F 96% 30.06 in 7.0 mi NNE 10.4 mph - N/A   Overcast
8:54 AM 70.0 °F 70.0 °F 100% 30.06 in 5.0 mi NNE 10.4 mph - 0.00 in Rain Light Rain
9:54 AM 70.0 °F 69.1 °F 97% 30.07 in 10.0 mi North 11.5 mph - 0.00 in Rain Light Rain
10:36 AM 72.0 °F 70.0 °F 93% 30.07 in 10.0 mi NNE 13.8 mph - 0.00 in   Overcast
10:54 AM 73.0 °F 69.1 °F 87% 30.07 in 10.0 mi NNE 13.8 mph - 0.00 in   Overcast
11:54 AM 75.0 °F 68.0 °F 79% 30.07 in 10.0 mi NNE 13.8 mph 20.7 mph N/A   Overcast
12:54 PM 77.0 °F 68.0 °F 74% 30.06 in 10.0 mi NNE 16.1 mph 24.2 mph N/A   Overcast
1:54 PM 75.9 °F 66.0 °F 71% 30.06 in 10.0 mi NNE 13.8 mph 24.2 mph N/A   Overcast
2:54 PM 75.9 °F 63.0 °F 64% 30.06 in 10.0 mi NNE 15.0 mph 25.3 mph N/A   Overcast
3:54 PM 78.1 °F 64.9 °F 64% 30.04 in 10.0 mi NNE 13.8 mph - N/A   Overcast
4:54 PM 78.1 °F 66.0 °F 66% 30.04 in 10.0 mi NNE 13.8 mph - N/A   Overcast
5:54 PM 77.0 °F 66.0 °F 69% 30.04 in 10.0 mi NNE 13.8 mph - N/A   Overcast
6:54 PM 75.0 °F 66.0 °F 73% 30.05 in 10.0 mi NNE 11.5 mph - N/A   Overcast
7:54 PM 73.9 °F 66.0 °F 76% 30.05 in 10.0 mi NNE 16.1 mph - N/A   Overcast
8:54 PM 73.0 °F 66.0 °F 79% 30.06 in 10.0 mi NNE 13.8 mph - N/A   Overcast
9:54 PM 72.0 °F 66.0 °F 81% 30.07 in 10.0 mi NNE 11.5 mph - N/A   Partly Cloudy
10:54 PM 71.1 °F 66.0 °F 84% 30.07 in 10.0 mi NNE 9.2 mph - N/A   Clear
11:54 PM 70.0 °F 66.0 °F 87% 30.08 in 10.0 mi North 6.9 mph - N/A   Clear